Погода в Туране

Узбекистан     38°55′48″N   66°59′17″E
темп.,
°C
ветер,
м/с
пор.,
м/с
влажн.,
%
обл.,
%
осадки,
мм/ч
давл.,
гПа
погр.,
м
3 марта, ср
ср323:00+8ююв1163100 0.1 102329
02:00+6в3480100 0.6 1023238
05:00+5вюв3484100 1.8 1023230
08:00+6вюв348597 0.8 1023191
11:00+9зсз126380 0.8 1022788
14:00+10з235677 0.3 10201145
17:00+11ююз025480 0.7 10191127
20:00+8юв236750 0.2 102062
4 марта, чт
чт423:00+7юв235825 0.2 102031
02:00+6юв23510 0.0 101928
05:00+6вюв33489 0.0 101830
08:00+8юв344965 0.0 101850
11:00+13зюз234377 0.0 1018631
14:00+15зюз484270 0.6 10161709
17:00+13ю245370 1.9 1016464
20:00+9ююв337286 2.9 102060
5 марта, пт
пт523:00+7юз348592 4.8 1024247
02:00+5з689286 1.3 1026513
05:00+4юв348993 4.8 1027283
08:00+5св118269 0.9 102868
11:00+8зсз217034 0.9 1027543
14:00+11сз22600 0.0 1023736
17:00+12сз22560 0.0 1020498
20:00+9вюв23564 0.0 102043
6 марта, сб
сб623:00+9юв553834 0.0 101764
02:00+9юв444098 0.0 101348
05:00+10вюв553899 0.0 101066
08:00+11ююв3344100 0.0 100936
11:00+5ссз2292100 5.6 1011247
14:00+13з1458100 1.4 1011381
17:00+9зюз2680100 2.3 1013565
20:00+6з468792 0.7 1016380
7 марта, вс
вс723:00+5з468396 0.8 1019417
02:00+3зсз5795100 0.2 1019468
05:00+2зсз4697100 1.8 1020336
08:00+1сз3497100 2.1 1021233
11:00+2с2295100 2.9 1021177
14:00+3ссз2293100 0.1 1019236
17:00+5ссв238394 0.1 1017308
20:00+3св228029 0.0 101832